Location: Newark
(45.2500°N, 7.5833°E)
Time: 20:38:57
(UTC+00:00)

A-11 Canister half - Pass Details

Date: 02 February 2020
Orbit: 1524 x 1684 km, 47.3° (Epoch: 19 February)

Event Time Altitude Azimuth Distance (km) Brightness Sun altitude
Rises 13:21:04 0° 201° (SSW) 4,671 13.0 24.0°
Reaches altitude 10° 13:24:33 10° 191° (S) 3,684 12.7 23.8°
Maximum altitude 13:32:16 31° 134° (SE) 2,426 10.5 23.1°
Drops below altitude 10° 13:40:03 10° 77° (ENE) 3,715 10.7 22.5°
Sets 13:43:33 0° 67° (ENE) 4,716 11.1 22.2°
